User: anonymous   Login
Location: Julian California
(33.0790°N, 116.6010°W)
Time: 21:54:44
(UTC-07:00)
Language:

Cosmos 1515 Rocket - Orbit

View from above orbital plane
View from above orbital plane
View from above satellite
View from above satellite

Ground track
Ground track

The orbit data is extracted from the following two-line orbital elements,

1 14552U 83122B   19111.52765682  .00000072  00000-0  57804-5 0  9995
2 14552  82.5248 166.2368 0018820  98.5240 261.8109 14.83474844909009
Epoch (UTC): 21 April 2019 12:39:49
Eccentricity: 0.0018820
inclination: 82.5248°
perigee height: 605 km
apogee height: 631 km
right ascension of ascending node: 166.2368°
argument of perigee: 98.5240°
revolutions per day: 14.83474844
mean anomaly at epoch: 261.8109°
orbit number at epoch: 90900

The dashed part of the orbit path shows where the satellite is in the earth's shadow,  

DLR